Вернуться в каталог

FENGYUN 1C DEB

АктивенSSO
NORAD 30377·DEBRIS·🇨🇳 China

Запущен May 10, 1999 с Taiyuan Satellite Launch Center

Loading…

Ближайшие Пролёты (ближайшие 24 часа)

TLE

СвежийSource: Space-Track

Эпоха: Sep 14, 2026, 00:54 UTC

1 30377U 99025ACQ 26257.03766088  .00000317  00000-0  23320-3 0  9999
2 30377  98.8786 273.4251 0117670 223.6239 160.6184 13.99431794   580

Отслеживайте FENGYUN 1C DEB в реальном времени с AllMySat

Download on the App Store